Temperature
-1 -2 -3 -3 -5 -6 -7 -8 -9 -9 -8 -6 -7 -7 -7 -8 -8 -9 -9 -9 -9 -9 -9 -9 -8 -8 -8 -8 -7 -7 -6 -6 -5 -4 -3 -2 -0 1
-1 -2 -3 -3 -4 -5 -7 -8 -9 -10 -9 -8 -7 -7 -8 -8 -8 -9 -9 -9 -9 -9 -9 -9 -9 -8 -8 -8 -8 -7 -7 -6 -5 -5 -4 -2 -1 1
-1 -2 -2 -3 -4 -5 -7 -8 -9 -9 -10 -9 -8 -8 -8 -8 -8 -8 -9 -9 -9 -9 -9 -9 -9 -9 -9 -8 -8 -7 -7 -6 -6 -5 -4 -3 -1 0
-1 -2 -3 -3 -4 -5 -6 -7 -8 -9 -9 -9 -9 -8 -8 -8 -8 -9 -9 -9 -9 -9 -9 -9 -9 -9 -9 -8 -8 -8 -7 -6 -6 -5 -4 -4 -2 -1
-2 -2 -3 -4 -4 -5 -6 -7 -8 -9 -9 -9 -9 -9 -8 -8 -8 -8 -9 -9 -9 -9 -9 -9 -9 -9 -9 -9 -8 -8 -7 -7 -6 -5 -5 -4 -3 -1
-2 -3 -3 -4 -4 -5 -6 -7 -8 -9 -9 -9 -9 -8 -8 -8 -8 -8 -9 -9 -9 -9 -9 -9 -9 -9 -9 -9 -9 -8 -8 -7 -6 -5 -5 -4 -3 -2
-2 -3 -3 -3 -4 -5 -6 -6 -7 -8 -8 -8 -8 -8 -8 -8 -8 -8 -9 -9 -9 -9 -10 -10 -10 -10 -9 -9 -9 -9 -8 -7 -6 -5 -5 -5 -4 -2
-3 -3 -3 -4 -4 -5 -6 -7 -7 -8 -8 -8 -8 -8 -8 -8 -8 -9 -9 -9 -9 -9 -10 -10 -10 -10 -10 -10 -9 -9 -9 -8 -7 -6 -5 -4 -4 -3
-3 -4 -4 -4 -4 -5 -6 -7 -8 -8 -8 -8 -8 -8 -9 -9 -9 -10 -10 -10 -10 -10 -10 -10 -10 -10 -10 -10 -9 -9 -9 -8 -7 -6 -5 -4 -4 -3
-3 -4 -4 -4 -5 -6 -7 -7 -7 -8 -8 -8 -9 -9 -9 -9 -10 -10 -10 -10 -11 -11 -11 -11 -10 -10 -10 -10 -9 -9 -8 -7 -6 -6 -5 -4 -3 -3
-4 -4 -4 -4 -5 -6 -7 -8 -8 -8 -8 -8 -9 -9 -9 -9 -10 -10 -11 -11 -11 -11 -11 -11 -11 -11 -10 -10 -9 -9 -8 -7 -6 -5 -4 -4 -3 -3
-4 -5 -4 -4 -5 -6 -7 -8 -8 -8 -8 -9 -9 -9 -9 -10 -10 -11 -12 -12 -12 -12 -11 -11 -11 -11 -11 -10 -9 -8 -8 -7 -6 -5 -4 -4 -3 -3
-5 -5 -4 -4 -5 -7 -7 -8 -8 -8 -9 -9 -9 -10 -10 -10 -11 -11 -12 -12 -13 -12 -12 -12 -12 -12 -11 -11 -10 -9 -8 -7 -6 -5 -4 -3 -3 -2
-5 -5 -5 -5 -6 -7 -7 -8 -8 -9 -9 -9 -10 -10 -10 -11 -11 -11 -12 -12 -12 -13 -13 -13 -13 -12 -12 -11 -11 -10 -8 -7 -6 -5 -4 -3 -2 -2
-5 -5 -5 -6 -7 -7 -7 -8 -8 -9 -9 -10 -10 -10 -11 -11 -11 -12 -12 -12 -12 -12 -12 -12 -12 -12 -12 -12 -11 -10 -9 -7 -6 -5 -4 -3 -3 -2
-5 -6 -6 -6 -7 -7 -8 -8 -9 -9 -10 -10 -10 -11 -11 -11 -12 -12 -12 -12 -12 -12 -12 -12 -12 -12 -12 -12 -11 -11 -10 -8 -6 -5 -4 -3 -2 -2
-5 -6 -7 -7 -7 -8 -8 -8 -9 -9 -10 -10 -11 -11 -11 -11 -12 -12 -12 -12 -13 -12 -12 -11 -11 -11 -11 -11 -11 -10 -9 -8 -6 -5 -4 -3 -2 -1
-6 -6 -7 -7 -7 -8 -8 -9 -9 -9 -10 -10 -11 -11 -11 -12 -12 -12 -12 -13 -13 -12 -12 -12 -11 -11 -11 -10 -9 -9 -8 -7 -6 -5 -4 -3 -2 -1
-7 -7 -7 -7 -7 -8 -8 -9 -9 -9 -10 -10 -11 -11 -11 -12 -12 -12 -12 -12 -13 -13 -12 -12 -12 -11 -11 -10 -8 -7 -7 -6 -6 -5 -4 -3 -2 -1
-7 -7 -7 -7 -7 -8 -8 -9 -9 -10 -10 -10 -11 -11 -12 -12 -12 -12 -12 -13 -13 -13 -12 -12 -12 -11 -11 -10 -9 -7 -6 -6 -5 -5 -4 -3 -1 -0
-6 -7 -7 -7 -7 -8 -8 -9 -9 -10 -10 -10 -11 -11 -12 -12 -12 -12 -13 -13 -13 -13 -12 -12 -11 -11 -11 -11 -10 -8 -6 -5 -5 -4 -3 -2 -1 -1
-6 -6 -7 -7 -7 -8 -8 -9 -9 -10 -10 -11 -11 -11 -12 -12 -12 -13 -13 -13 -13 -13 -12 -12 -11 -11 -11 -11 -10 -8 -7 -6 -5 -4 -3 -2 -1 -0
-6 -6 -7 -7 -8 -8 -9 -9 -9 -10 -10 -11 -11 -11 -12 -12 -12 -12 -13 -13 -13 -13 -12 -12 -11 -11 -11 -10 -10 -9 -7 -6 -5 -3 -3 -1 -1 1
Wind_Speed
16 17 15 13 13 13 13 13 13 15 17 19 15 15 16 18 22 23 24 28 31 34 36 37 37 38 39 39 39 39 39 39 39 39 38 37 36 34
14 16 16 14 13 13 13 13 14 15 16 16 16 17 18 18 24 25 26 31 34 35 36 37 37 38 38 39 39 38 38 38 37 37 37 37 35 32
16 17 18 16 13 13 13 13 14 14 18 19 18 18 21 21 20 22 24 25 25 32 34 36 37 37 38 38 38 37 36 36 36 36 35 35 33 31
19 18 18 15 17 15 14 15 15 16 17 21 20 19 21 21 21 22 20 21 23 29 34 35 36 37 37 37 36 35 35 34 34 34 34 33 31 30
18 18 18 17 17 15 16 15 14 15 16 18 20 18 18 18 20 21 22 19 21 25 30 32 33 34 34 34 34 34 33 33 32 32 32 31 30 29
18 17 17 17 18 17 15 17 16 16 17 17 18 18 18 19 17 17 18 17 18 18 22 25 29 31 32 32 32 31 31 30 30 30 29 29 28 27
17 17 18 20 22 19 15 15 16 15 15 16 17 18 18 16 16 16 18 19 19 17 18 18 18 18 19 23 26 27 28 28 29 29 28 28 27 26
18 17 18 21 23 26 28 26 23 19 17 17 17 19 20 19 18 17 18 20 21 16 17 18 17 18 17 16 22 26 26 27 27 28 28 27 26 25
18 16 14 15 20 17 21 24 24 27 26 20 21 21 21 20 20 22 20 21 21 18 18 20 18 18 17 17 26 27 27 27 27 27 27 26 25 25
18 18 17 17 15 16 15 16 18 18 20 16 17 19 19 19 19 20 21 21 22 18 17 19 18 17 17 16 23 26 27 27 27 27 26 25 24 23
18 18 18 17 20 21 17 17 18 17 19 23 24 24 27 27 23 17 17 17 19 17 14 15 17 16 16 16 17 23 24 24 25 26 25 25 23 22
15 16 21 21 21 21 17 17 18 16 14 15 17 18 18 19 22 16 15 15 17 16 12 11 13 12 10 11 10 10 12 18 22 23 24 24 23 16
13 12 13 20 22 22 20 16 17 16 15 14 14 14 13 12 13 12 12 13 15 16 13 12 13 13 13 13 12 11 9 9 11 14 20 23 23 19
13 11 12 17 19 20 17 16 18 17 12 12 12 13 12 12 12 12 14 15 16 18 18 16 15 15 14 15 12 10 9 9 9 10 11 16 20 22
13 16 16 17 17 15 15 16 15 11 10 11 12 13 12 13 13 12 14 14 16 17 17 18 16 15 14 15 14 12 10 8 8 9 9 10 11 13
15 15 18 17 14 12 12 11 9 10 10 11 12 12 12 12 12 12 12 12 13 13 13 14 15 16 14 15 14 13 11 7 6 6 7 8 10 11
12 9 9 9 9 9 9 9 8 9 10 10 11 11 12 12 12 11 11 12 13 13 13 10 11 12 15 14 13 13 12 11 10 9 7 8 10 11
13 10 10 10 10 9 9 8 8 8 9 9 10 10 11 12 12 12 11 11 12 12 12 11 10 9 9 11 17 15 12 10 9 9 8 8 10 11
13 11 10 10 9 9 8 8 8 8 8 9 10 10 11 11 12 12 12 12 12 12 12 11 9 9 10 9 8 17 13 10 8 8 9 9 9 10
11 11 10 9 8 8 8 8 8 8 8 8 9 10 10 11 11 12 12 12 13 13 12 10 9 9 10 9 7 6 14 11 8 8 8 8 8 8
11 10 9 8 8 8 7 7 8 8 9 9 9 10 10 11 11 12 12 16 14 12 12 11 10 13 10 8 8 8 7 14 13 8 7 7 8 8
10 9 8 8 7 7 7 7 7 8 9 9 9 10 10 10 12 13 12 12 12 12 13 12 11 9 8 10 11 10 8 6 13 18 16 11 5 7
9 8 8 7 7 6 6 7 8 8 8 9 9 9 10 10 11 11 12 12 12 13 12 12 10 8 9 10 10 10 10 8 5 7 10 15 18 17
Wind_Direction
221 224 230 238 240 244 248 252 263 278 283 286 289 286 286 283 281 281 280 280 280 280 280 279 279 279 279 280 280 281 282 282 283 285 284 283 279 273
219 225 229 235 239 242 245 248 250 259 272 279 285 287 287 283 281 281 280 280 281 280 280 279 279 279 279 279 279 278 278 279 280 282 282 281 279 275
219 224 230 234 239 242 244 247 249 252 263 275 280 284 285 284 282 281 280 280 279 278 278 279 279 278 278 277 276 276 276 277 278 281 282 281 282 282
220 223 230 231 236 242 244 247 250 252 259 272 279 284 284 283 283 282 281 279 278 278 278 279 279 278 277 276 275 274 274 275 276 278 280 281 281 284
219 222 228 230 236 239 243 247 251 255 258 266 275 280 282 282 283 282 282 280 279 279 279 279 278 278 277 276 274 273 272 272 273 274 278 280 280 283
220 224 228 229 234 240 244 248 252 257 260 265 271 278 281 283 284 285 286 285 283 283 282 280 278 277 275 274 273 272 271 270 271 271 273 277 279 283
221 226 230 232 234 238 240 246 249 255 260 266 274 279 282 286 287 290 290 290 287 285 284 281 279 275 275 273 270 269 268 267 268 269 270 273 275 279
222 227 232 236 240 244 248 251 253 257 265 272 277 279 283 288 293 292 291 290 289 287 284 282 279 276 274 270 267 267 266 265 264 265 264 267 270 274
221 227 230 233 237 241 250 257 263 266 267 270 274 278 285 289 291 289 286 285 286 289 289 283 280 277 274 269 269 267 264 262 260 261 260 263 266 269
221 225 231 236 235 239 245 253 258 261 263 265 268 273 276 280 282 284 288 287 285 281 277 278 280 278 277 273 271 265 262 260 258 257 256 258 262 264
225 228 233 240 243 244 248 256 262 263 266 267 267 272 277 284 288 290 288 287 287 287 283 278 280 283 281 277 270 266 262 258 254 251 250 251 255 258
226 228 232 237 243 245 247 255 264 271 274 277 277 278 279 282 284 280 280 282 284 288 285 276 279 286 285 277 275 275 266 257 251 248 245 244 246 249
224 225 228 234 241 246 250 256 264 274 282 281 280 279 280 278 277 273 270 271 276 276 279 282 280 279 274 281 291 287 277 266 251 243 239 237 238 237
223 226 228 233 240 248 254 259 269 280 280 279 281 283 285 286 286 284 278 271 268 271 275 274 272 272 274 276 279 283 279 269 254 240 231 227 229 233
224 228 232 237 243 252 256 263 273 274 273 276 280 284 287 289 289 287 283 277 272 270 268 263 261 263 261 264 270 276 284 274 263 245 231 222 217 217
229 232 235 240 243 249 256 263 263 263 268 274 280 285 289 290 289 290 291 292 289 286 275 265 260 258 257 257 261 266 269 266 261 261 243 228 220 216
213 219 223 229 235 241 246 252 256 261 267 270 279 286 289 291 292 294 291 291 290 292 294 287 270 257 253 254 255 256 257 256 254 252 247 228 220 216
206 216 222 228 234 241 248 254 256 261 267 274 279 283 288 292 294 295 293 292 291 292 292 293 290 277 258 247 235 247 251 253 249 239 232 224 217 214
210 218 223 227 233 240 247 253 259 265 270 274 277 282 287 290 293 296 296 295 294 293 292 290 284 274 268 269 243 218 231 242 241 232 225 221 217 211
213 220 223 227 232 239 246 251 260 268 270 273 277 281 285 289 293 295 296 297 297 296 294 288 279 270 264 273 283 260 221 232 237 230 223 222 227 229
211 219 223 226 231 238 244 250 258 266 272 276 280 282 286 290 292 294 296 297 297 294 293 291 286 282 276 271 265 260 246 223 233 237 220 211 206 204
210 216 220 225 229 235 242 249 258 266 273 276 281 285 288 290 292 295 297 297 295 292 292 290 288 278 256 247 251 260 260 243 229 242 255 258 223 196
209 213 217 219 225 231 239 248 258 268 275 280 284 288 292 293 294 295 296 295 294 294 294 293 290 277 259 249 249 252 254 248 233 220 235 242 250 264
Height
1454 1455 1455 1454 1453 1452 1450 1449 1446 1439 1433 1430 1430 1427 1423 1419 1414 1409 1404 1400 1396 1392 1389 1385 1382 1379 1376 1373 1370 1367 1364 1361 1357 1354 1350 1348 1348 1349
1445 1445 1445 1445 1444 1443 1441 1439 1437 1433 1426 1420 1419 1417 1414 1409 1405 1401 1395 1391 1386 1382 1378 1374 1371 1367 1364 1361 1358 1355 1353 1350 1348 1344 1342 1340 1339 1339
1434 1435 1435 1436 1435 1434 1432 1430 1428 1424 1418 1411 1410 1407 1404 1400 1395 1392 1387 1381 1376 1371 1367 1363 1359 1356 1352 1349 1346 1343 1341 1339 1337 1334 1332 1330 1329 1329
1424 1425 1426 1426 1425 1424 1422 1420 1418 1415 1411 1404 1400 1398 1394 1391 1386 1382 1377 1372 1366 1361 1356 1352 1347 1343 1340 1336 1334 1332 1330 1329 1327 1326 1324 1322 1321 1320
1414 1415 1416 1416 1415 1414 1413 1411 1409 1406 1403 1398 1391 1389 1385 1381 1377 1371 1367 1361 1356 1351 1346 1341 1336 1332 1328 1325 1322 1320 1319 1318 1317 1317 1315 1314 1312 1311
1403 1405 1406 1406 1405 1405 1403 1401 1400 1397 1395 1390 1384 1380 1376 1372 1368 1362 1356 1352 1346 1341 1335 1330 1325 1321 1316 1313 1310 1308 1307 1307 1306 1307 1306 1306 1305 1304
1393 1395 1395 1396 1395 1395 1393 1391 1390 1388 1386 1382 1377 1372 1368 1364 1360 1355 1348 1342 1336 1333 1325 1320 1315 1310 1306 1303 1300 1298 1296 1296 1296 1297 1297 1298 1298 1297
1382 1384 1385 1386 1386 1385 1384 1383 1383 1380 1377 1374 1369 1364 1359 1356 1352 1346 1340 1333 1324 1323 1318 1310 1307 1301 1297 1294 1291 1289 1287 1287 1287 1288 1290 1291 1291 1291
1373 1375 1375 1376 1376 1375 1374 1373 1372 1371 1369 1366 1361 1356 1352 1348 1343 1337 1331 1325 1317 1312 1309 1299 1296 1291 1287 1283 1281 1279 1278 1278 1279 1280 1282 1283 1284 1285
1362 1365 1366 1366 1366 1366 1364 1363 1361 1359 1358 1355 1351 1346 1342 1338 1334 1329 1322 1314 1307 1303 1300 1291 1286 1282 1278 1274 1270 1268 1268 1268 1269 1271 1273 1275 1278 1279
1353 1355 1356 1357 1357 1357 1356 1354 1352 1350 1348 1345 1342 1338 1334 1330 1326 1320 1313 1307 1297 1293 1291 1285 1278 1274 1269 1264 1261 1259 1258 1259 1260 1262 1266 1269 1272 1275
1344 1345 1347 1348 1348 1348 1348 1346 1344 1341 1339 1335 1332 1327 1323 1319 1315 1311 1305 1299 1291 1284 1281 1278 1273 1269 1262 1257 1255 1253 1252 1251 1253 1255 1259 1262 1266 1269
1334 1336 1338 1339 1339 1339 1339 1338 1336 1334 1331 1327 1323 1318 1314 1310 1305 1301 1296 1291 1285 1277 1275 1272 1267 1264 1261 1254 1250 1248 1247 1246 1247 1249 1252 1256 1260 1264
1326 1328 1330 1331 1331 1331 1331 1330 1328 1327 1323 1319 1315 1311 1306 1302 1297 1292 1287 1282 1276 1270 1266 1264 1260 1257 1254 1250 1246 1244 1243 1242 1243 1245 1248 1252 1255 1259
1318 1321 1322 1323 1323 1323 1323 1322 1321 1318 1315 1311 1307 1303 1299 1294 1288 1283 1278 1272 1267 1262 1257 1254 1252 1249 1248 1244 1241 1240 1238 1237 1239 1241 1244 1247 1251 1255
1312 1314 1315 1316 1316 1316 1315 1314 1312 1310 1307 1304 1300 1296 1291 1287 1282 1276 1271 1265 1259 1254 1251 1247 1244 1242 1240 1238 1236 1234 1234 1234 1234 1237 1239 1243 1246 1250
1305 1307 1308 1309 1309 1308 1307 1306 1305 1303 1300 1297 1293 1289 1285 1280 1275 1270 1265 1259 1254 1248 1243 1241 1238 1235 1233 1232 1230 1228 1228 1228 1230 1232 1235 1239 1242 1247
1299 1299 1300 1301 1301 1301 1301 1299 1298 1296 1293 1290 1287 1283 1278 1273 1268 1264 1259 1254 1249 1243 1238 1235 1232 1229 1227 1224 1223 1222 1222 1223 1226 1228 1231 1235 1239 1243
1291 1292 1294 1294 1295 1294 1294 1293 1291 1289 1287 1284 1280 1276 1272 1268 1263 1258 1253 1249 1243 1238 1234 1230 1227 1226 1224 1221 1218 1218 1218 1220 1222 1225 1227 1231 1235 1240
1284 1286 1287 1288 1288 1288 1287 1286 1284 1282 1280 1277 1274 1270 1266 1262 1257 1252 1248 1243 1238 1233 1228 1225 1223 1221 1219 1218 1216 1214 1215 1216 1218 1221 1224 1228 1232 1237
1278 1280 1281 1282 1282 1282 1281 1280 1278 1276 1274 1271 1268 1264 1261 1256 1252 1247 1242 1237 1233 1228 1223 1219 1217 1215 1213 1213 1212 1210 1212 1213 1215 1218 1222 1226 1230 1235
1273 1275 1276 1277 1277 1276 1275 1274 1272 1270 1268 1265 1262 1259 1255 1251 1246 1241 1237 1232 1227 1222 1218 1214 1211 1209 1208 1207 1206 1207 1208 1210 1212 1215 1219 1223 1227 1233
1268 1270 1271 1271 1271 1271 1270 1268 1267 1265 1262 1260 1257 1253 1249 1245 1241 1236 1231 1226 1221 1217 1213 1209 1206 1204 1203 1202 1202 1203 1204 1207 1210 1212 1216 1219 1223 1228